| time (UTC) | temp F | wind direction | speed MPH | gust MPH | rain 1hr in | rain 24hr in | rain mn in | humidity % | barometer mb |
| 20260831002022 | 79 | 82 | 0.0 | 0.0 | 0.00 | 0.67 | 0.67 | 83 | 1016.4 |
| 20260831001549 | 79 | 82 | 0.0 | 0.0 | 0.00 | 0.67 | 0.67 | 82 | 1016.4 |
| 20260831001022 | 80 | 82 | 0.0 | 0.0 | 0.00 | 0.67 | 0.67 | 82 | 1016.4 |
| 20260831000531 | 80 | 82 | 0.0 | 0.0 | 0.00 | 0.67 | 0.67 | 82 | 1016.4 |
| 20260831000028 | 80 | 82 | 0.0 | 0.0 | 0.00 | 0.67 | 0.67 | 81 | 1016.4 |
| 20260830235532 | 80 | 82 | 0.0 | 0.0 | 0.00 | 0.67 | 0.67 | 80 | 1016.4 |
| 20260830235028 | 80 | 82 | 0.0 | 0.0 | 0.00 | 0.67 | 0.67 | 80 | 1016.4 |
| 20260830234536 | 80 | 82 | 0.0 | 0.0 | 0.00 | 0.67 | 0.67 | 79 | 1016.2 |
| 20260830234051 | 81 | 82 | 0.0 | 0.0 | 0.00 | 0.67 | 0.67 | 79 | 1016.2 |
| 20260830233526 | 81 | 82 | 0.0 | 0.0 | 0.00 | 0.67 | 0.67 | 79 | 1016.2 |
| 20260830233054 | 81 | 82 | 0.0 | 0.0 | 0.00 | 0.67 | 0.67 | 79 | 1015.9 |
| 20260830232528 | 81 | 82 | 0.0 | 0.0 | 0.00 | 0.68 | 0.67 | 77 | 1015.9 |
| 20260830232024 | 81 | 82 | 0.0 | 1.0 | 0.00 | 0.68 | 0.67 | 76 | 1015.9 |
| 20260830231554 | 81 | 82 | 0.0 | 1.0 | 0.00 | 0.68 | 0.67 | 78 | 1015.5 |
| 20260830231029 | 81 | 82 | 0.0 | 1.0 | 0.00 | 0.68 | 0.67 | 78 | 1015.5 |
| 20260830230525 | 81 | 82 | 0.0 | 1.0 | 0.00 | 0.68 | 0.67 | 78 | 1015.5 |
| 20260830230050 | 81 | 82 | 0.0 | 1.0 | 0.00 | 0.68 | 0.67 | 78 | 1015.5 |
| 20260830225524 | 81 | 82 | 0.0 | 1.0 | 0.00 | 0.68 | 0.67 | 76 | 1015.5 |
| 20260830225040 | 81 | 82 | 0.0 | 0.0 | 0.00 | 0.68 | 0.67 | 77 | 1015.5 |
| 20260830224534 | 81 | 82 | 0.0 | 2.0 | 0.00 | 0.68 | 0.67 | 77 | 1015.9 |
| 20260830224028 | 82 | 82 | 0.0 | 3.0 | 0.00 | 0.68 | 0.67 | 77 | 1015.9 |
| 20260830223523 | 82 | 82 | 1.0 | 3.0 | 0.00 | 0.68 | 0.67 | 76 | 1015.9 |
| 20260830223038 | 82 | 69 | 1.0 | 2.0 | 0.00 | 0.68 | 0.67 | 75 | 1015.9 |
| 20260830222533 | 82 | 71 | 1.0 | 2.0 | 0.00 | 0.71 | 0.67 | 74 | 1015.9 |
| 20260830222025 | 82 | 72 | 0.0 | 2.0 | 0.00 | 0.71 | 0.67 | 75 | 1015.9 |
| 20260830221521 | 82 | 58 | 1.0 | 2.0 | 0.00 | 0.71 | 0.67 | 74 | 1015.9 |
| 20260830221021 | 82 | 89 | 1.0 | 1.0 | 0.00 | 0.71 | 0.67 | 73 | 1015.9 |
| 20260830220529 | 82 | 87 | 0.0 | 2.0 | 0.00 | 0.71 | 0.67 | 74 | 1015.9 |
| 20260830220025 | 83 | 91 | 1.0 | 2.0 | 0.00 | 0.71 | 0.67 | 73 | 1015.8 |
| 20260830215553 | 83 | 75 | 1.0 | 2.0 | 0.00 | 0.71 | 0.67 | 71 | 1015.8 |
| 20260830215029 | 83 | 61 | 1.0 | 2.0 | 0.00 | 0.71 | 0.67 | 68 | 1015.8 |
| 20260830214525 | 84 | 65 | 0.0 | 2.0 | 0.00 | 0.71 | 0.67 | 69 | 1015.6 |
| 20260830214033 | 84 | 39 | 0.0 | 2.0 | 0.00 | 0.71 | 0.67 | 68 | 1015.6 |
| 20260830213532 | 84 | 96 | 1.0 | 3.0 | 0.00 | 0.71 | 0.67 | 67 | 1015.6 |
| 20260830213046 | 84 | 56 | 1.0 | 3.0 | 0.00 | 0.71 | 0.67 | 68 | 1015.8 |
| 20260830212533 | 85 | 30 | 1.0 | 3.0 | 0.00 | 0.74 | 0.67 | 66 | 1015.8 |
| 20260830212030 | 85 | 51 | 0.0 | 3.0 | 0.00 | 0.74 | 0.67 | 68 | 1015.8 |
| 20260830211526 | 85 | 46 | 1.0 | 3.0 | 0.00 | 0.74 | 0.67 | 67 | 1015.9 |
| 20260830211033 | 85 | 44 | 1.0 | 2.0 | 0.00 | 0.74 | 0.67 | 69 | 1015.9 |
| 20260830210529 | 85 | 60 | 2.0 | 4.0 | 0.00 | 0.74 | 0.67 | 66 | 1015.9 |
| 20260830210028 | 84 | 44 | 1.0 | 4.0 | 0.00 | 0.74 | 0.67 | 66 | 1015.8 |
| 20260830205555 | 84 | 44 | 1.0 | 4.0 | 0.00 | 0.74 | 0.67 | 70 | 1015.8 |
| 20260830205030 | 84 | 21 | 0.0 | 4.0 | 0.00 | 0.74 | 0.67 | 70 | 1015.8 |
| 20260830204527 | 84 | 46 | 2.0 | 4.0 | 0.00 | 0.74 | 0.67 | 69 | 1015.8 |
| 20260830204058 | 84 | 37 | 1.0 | 5.0 | 0.00 | 0.74 | 0.67 | 69 | 1015.8 |
| 20260830203530 | 83 | 51 | 1.0 | 5.0 | 0.00 | 0.74 | 0.67 | 71 | 1015.8 |
| 20260830203026 | 83 | 37 | 1.0 | 3.0 | 0.00 | 0.74 | 0.67 | 73 | 1016.2 |
| 20260830202543 | 83 | 37 | 1.0 | 4.0 | 0.00 | 0.74 | 0.67 | 73 | 1016.2 |
| 20260830202032 | 83 | 64 | 2.0 | 4.0 | 0.00 | 0.74 | 0.67 | 75 | 1016.2 |
| 20260830201529 | 83 | 39 | 2.0 | 3.0 | 0.00 | 0.74 | 0.67 | 77 | 1016.2 |
| 20260830201022 | 83 | 44 | 1.0 | 3.0 | 0.00 | 0.74 | 0.67 | 84 | 1016.2 |
| 20260830200531 | 82 | 62 | 0.0 | 3.0 | 0.00 | 0.74 | 0.67 | 88 | 1016.2 |
| 20260830200027 | 82 | 350 | 2.0 | 3.0 | 0.00 | 0.74 | 0.67 | 91 | 1016.3 |
| 20260830195524 | 81 | 64 | 0.0 | 3.0 | 0.00 | 0.74 | 0.67 | 93 | 1016.3 |
| 20260830195022 | 81 | 359 | 2.0 | 3.0 | 0.00 | 0.74 | 0.67 | 98 | 1016.3 |
| 20260830194551 | 80 | 359 | 0.0 | 0.0 | 0.00 | 0.74 | 0.67 | 100 | 1016.3 |
| 20260830194027 | 80 | 25 | 0.0 | 0.0 | 0.00 | 0.74 | 0.67 | 100 | 1016.3 |
| 20260830193525 | 79 | 25 | 0.0 | 0.0 | 0.00 | 0.74 | 0.67 | 100 | 1016.3 |
| 20260830193054 | 79 | 25 | 0.0 | 0.0 | 0.00 | 0.74 | 0.67 | 100 | 1016.4 |
| 20260830192528 | 79 | 25 | 0.0 | 0.0 | 0.00 | 0.74 | 0.67 | 100 | 1016.4 |
| 20260830192037 | 79 | 25 | 0.0 | 0.0 | 0.00 | 0.74 | 0.67 | 100 | 1016.4 |
| 20260830191552 | 79 | 25 | 0.0 | 0.0 | 0.00 | 0.74 | 0.67 | 100 | 1016.3 |
| 20260830191027 | 79 | 38 | 0.0 | 0.0 | 0.00 | 0.74 | 0.67 | 100 | 1016.3 |
| 20260830190536 | 79 | 39 | 0.0 | 0.0 | 0.00 | 0.74 | 0.67 | 100 | 1016.3 |
| 20260830190031 | 78 | 39 | 0.0 | 0.0 | 0.00 | 0.74 | 0.67 | 100 | 1016.4 |
| 20260830185528 | 78 | 39 | 0.0 | 0.0 | 0.01 | 0.74 | 0.67 | 100 | 1016.4 |
| 20260830185024 | 78 | 39 | 0.0 | 0.0 | 0.01 | 0.74 | 0.67 | 100 | 1016.4 |
| 20260830184537 | 78 | 39 | 0.0 | 0.0 | 0.01 | 0.74 | 0.67 | 100 | 1016.6 |
| 20260830184031 | 78 | 39 | 0.0 | 0.0 | 0.01 | 0.74 | 0.67 | 100 | 1016.6 |
| 20260830183527 | 78 | 37 | 0.0 | 2.0 | 0.01 | 0.74 | 0.67 | 100 | 1016.6 |
| 20260830183031 | 78 | 37 | 0.0 | 2.0 | 0.01 | 0.74 | 0.67 | 100 | 1016.9 |
| 20260830182527 | 78 | 6 | 0.0 | 2.0 | 0.01 | 0.74 | 0.67 | 100 | 1016.9 |
| 20260830182044 | 78 | 24 | 1.0 | 1.0 | 0.01 | 0.74 | 0.67 | 100 | 1016.9 |
| 20260830181531 | 78 | 101 | 0.0 | 2.0 | 0.01 | 0.74 | 0.67 | 100 | 1017.4 |
| 20260830181028 | 78 | 99 | 1.0 | 2.0 | 0.01 | 0.74 | 0.67 | 100 | 1017.4 |
| 20260830180523 | 78 | 91 | 0.0 | 2.0 | 0.01 | 0.74 | 0.67 | 100 | 1017.4 |
| 20260830180053 | 77 | 91 | 0.0 | 2.0 | 0.01 | 0.74 | 0.67 | 100 | 1017.5 |
| 20260830175548 | 77 | 91 | 1.0 | 5.0 | 0.01 | 0.73 | 0.66 | 100 | 1017.5 |
| 20260830175036 | 77 | 120 | 1.0 | 5.0 | 0.02 | 0.73 | 0.66 | 100 | 1017.5 |
| 20260830174552 | 77 | 30 | 1.0 | 4.0 | 0.02 | 0.73 | 0.66 | 100 | 1017.9 |
| 20260830174026 | 77 | 52 | 2.0 | 4.0 | 0.02 | 0.73 | 0.66 | 100 | 1017.9 |
| 20260830173523 | 77 | 39 | 0.0 | 2.0 | 0.03 | 0.73 | 0.66 | 100 | 1017.9 |
| 20260830173058 | 77 | 40 | 0.0 | 3.0 | 0.04 | 0.73 | 0.66 | 100 | 1018.2 |
| 20260830172552 | 76 | 27 | 0.0 | 3.0 | 0.04 | 0.73 | 0.66 | 100 | 1018.2 |
| 20260830172026 | 76 | 29 | 1.0 | 5.0 | 0.05 | 0.73 | 0.66 | 100 | 1018.2 |
| 20260830171528 | 76 | 37 | 1.0 | 5.0 | 0.07 | 0.73 | 0.66 | 100 | 1018.1 |
| 20260830171024 | 75 | 357 | 0.0 | 2.0 | 0.14 | 0.73 | 0.66 | 100 | 1018.1 |
| 20260830170532 | 75 | 39 | 0.0 | 3.0 | 0.27 | 0.73 | 0.66 | 100 | 1018.1 |
| 20260830170027 | 76 | 39 | 0.0 | 3.0 | 0.39 | 0.73 | 0.66 | 100 | 1018.7 |
| 20260830165523 | 76 | 36 | 1.0 | 3.0 | 0.40 | 0.72 | 0.65 | 100 | 1018.7 |
| 20260830165030 | 76 | 71 | 0.0 | 0.0 | 0.42 | 0.72 | 0.65 | 100 | 1018.7 |
| 20260830164524 | 76 | 71 | 0.0 | 2.0 | 0.53 | 0.71 | 0.64 | 100 | 1018.7 |
| 20260830164040 | 76 | 71 | 0.0 | 3.0 | 0.59 | 0.71 | 0.64 | 100 | 1018.7 |
| 20260830163526 | 76 | 110 | 1.0 | 3.0 | 0.58 | 0.70 | 0.63 | 100 | 1018.7 |
| 20260830163021 | 76 | 75 | 0.0 | 2.0 | 0.58 | 0.69 | 0.62 | 100 | 1019.0 |
| 20260830162552 | 76 | 40 | 0.0 | 1.0 | 0.59 | 0.69 | 0.62 | 100 | 1019.0 |
| 20260830162027 | 76 | 40 | 0.0 | 1.0 | 0.58 | 0.68 | 0.61 | 100 | 1019.0 |
| 20260830161535 | 75 | 40 | 0.0 | 3.0 | 0.56 | 0.66 | 0.59 | 100 | 1018.9 |
| 20260830161027 | 76 | 40 | 0.0 | 5.0 | 0.50 | 0.60 | 0.53 | 100 | 1018.9 |
| 20260830160536 | 76 | 94 | 0.0 | 7.0 | 0.37 | 0.47 | 0.40 | 100 | 1018.9 |
| 20260830160030 | 76 | 104 | 3.0 | 7.0 | 0.24 | 0.34 | 0.27 | 100 | 1018.6 |
| 20260830155527 | 76 | 183 | 1.0 | 6.0 | 0.22 | 0.32 | 0.25 | 100 | 1018.6 |
| 20260830155044 | 77 | 113 | 2.0 | 6.0 | 0.20 | 0.30 | 0.23 | 100 | 1018.6 |
| 20260830154535 | 77 | 160 | 1.0 | 3.0 | 0.10 | 0.20 | 0.13 | 100 | 1018.1 |
| 20260830154035 | 77 | 345 | 0.0 | 3.0 | 0.02 | 0.12 | 0.05 | 100 | 1018.1 |
| 20260830153524 | 77 | 79 | 0.0 | 2.0 | 0.02 | 0.12 | 0.05 | 100 | 1018.1 |
| 20260830153039 | 77 | 79 | 0.0 | 4.0 | 0.01 | 0.11 | 0.04 | 100 | 1018.1 |
| 20260830152527 | 78 | 79 | 1.0 | 5.0 | 0.00 | 0.10 | 0.03 | 100 | 1018.1 |
| 20260830152025 | 78 | 162 | 0.0 | 5.0 | 0.00 | 0.10 | 0.03 | 100 | 1018.1 |
| 20260830151522 | 78 | 150 | 1.0 | 12.0 | 0.00 | 0.10 | 0.03 | 100 | 1017.9 |
| 20260830151029 | 79 | 55 | 1.0 | 12.0 | 0.00 | 0.10 | 0.03 | 100 | 1017.9 |
| 20260830150533 | 79 | 81 | 0.0 | 3.0 | 0.00 | 0.10 | 0.03 | 100 | 1017.9 |
| 20260830150029 | 80 | 106 | 1.0 | 4.0 | 0.00 | 0.10 | 0.03 | 100 | 1017.7 |
| 20260830145526 | 80 | 89 | 1.0 | 4.0 | 0.00 | 0.10 | 0.03 | 100 | 1017.7 |
| 20260830145021 | 81 | 99 | 1.0 | 2.0 | 0.00 | 0.10 | 0.03 | 100 | 1017.7 |
| 20260830144534 | 81 | 32 | 0.0 | 2.0 | 0.00 | 0.10 | 0.03 | 100 | 1017.5 |
| 20260830144030 | 81 | 2 | 0.0 | 2.0 | 0.00 | 0.10 | 0.03 | 100 | 1017.5 |
| 20260830143526 | 81 | 133 | 0.0 | 2.0 | 0.00 | 0.10 | 0.03 | 100 | 1017.5 |
| 20260830143022 | 81 | 202 | 0.0 | 2.0 | 0.00 | 0.10 | 0.03 | 100 | 1017.8 |
| 20260830142536 | 81 | 202 | 0.0 | 1.0 | 0.00 | 0.10 | 0.03 | 100 | 1017.8 |
| 20260830142033 | 81 | 202 | 0.0 | 1.0 | 0.00 | 0.10 | 0.03 | 100 | 1017.8 |
| 20260830141547 | 81 | 202 | 0.0 | 1.0 | 0.00 | 0.10 | 0.03 | 100 | 1017.8 |
| 20260830141036 | 81 | 202 | 0.0 | 2.0 | 0.00 | 0.10 | 0.03 | 100 | 1017.8 |
| 20260830140531 | 80 | 202 | 1.0 | 2.0 | 0.00 | 0.10 | 0.03 | 100 | 1017.8 |
| 20260830140026 | 80 | 214 | 1.0 | 2.0 | 0.00 | 0.10 | 0.03 | 100 | 1017.7 |
| 20260830135543 | 80 | 185 | 0.0 | 2.0 | 0.00 | 0.10 | 0.03 | 100 | 1017.7 |
| 20260830135033 | 80 | 185 | 1.0 | 3.0 | 0.00 | 0.10 | 0.03 | 100 | 1017.7 |
| 20260830134528 | 80 | 185 | 0.0 | 5.0 | 0.00 | 0.10 | 0.03 | 100 | 1017.7 |
| 20260830134042 | 80 | 245 | 3.0 | 5.0 | 0.00 | 0.10 | 0.03 | 100 | 1017.7 |
| 20260830133530 | 80 | 271 | 0.0 | 2.0 | 0.00 | 0.10 | 0.03 | 100 | 1017.7 |
| 20260830133043 | 80 | 271 | 0.0 | 1.0 | 0.00 | 0.10 | 0.03 | 100 | 1017.5 |
| 20260830132530 | 80 | 271 | 0.0 | 3.0 | 0.00 | 0.11 | 0.03 | 100 | 1017.5 |
| 20260830132047 | 80 | 271 | 1.0 | 3.0 | 0.00 | 0.11 | 0.03 | 100 | 1017.5 |
| 20260830131554 | 80 | 303 | 0.0 | 3.0 | 0.00 | 0.11 | 0.03 | 100 | 1017.4 |
| 20260830131026 | 80 | 63 | 0.0 | 2.0 | 0.01 | 0.11 | 0.03 | 100 | 1017.4 |
| 20260830130536 | 80 | 68 | 0.0 | 0.0 | 0.01 | 0.11 | 0.03 | 100 | 1017.4 |
| 20260830130031 | 80 | 68 | 0.0 | 0.0 | 0.01 | 0.11 | 0.03 | 100 | 1017.2 |
| 20260830125525 | 79 | 68 | 0.0 | 0.0 | 0.01 | 0.11 | 0.03 | 100 | 1017.2 |
| 20260830125033 | 79 | 68 | 0.0 | 0.0 | 0.01 | 0.11 | 0.03 | 100 | 1017.2 |
| 20260830124532 | 79 | 68 | 0.0 | 0.0 | 0.01 | 0.11 | 0.03 | 100 | 1017.1 |
| 20260830124025 | 79 | 68 | 0.0 | 0.0 | 0.01 | 0.11 | 0.03 | 100 | 1017.1 |
| 20260830123522 | 78 | 68 | 0.0 | 0.0 | 0.01 | 0.11 | 0.03 | 100 | 1017.1 |
| 20260830123038 | 78 | 68 | 0.0 | 0.0 | 0.01 | 0.11 | 0.03 | 100 | 1017.0 |
| 20260830122531 | 78 | 68 | 0.0 | 0.0 | 0.01 | 0.11 | 0.03 | 100 | 1017.0 |
| 20260830122030 | 78 | 68 | 0.0 | 1.0 | 0.01 | 0.11 | 0.03 | 100 | 1017.0 |
| 20260830121525 | 78 | 68 | 0.0 | 1.0 | 0.01 | 0.11 | 0.03 | 100 | 1017.0 |
| 20260830121021 | 78 | 68 | 0.0 | 0.0 | 0.00 | 0.10 | 0.02 | 100 | 1017.0 |
| 20260830120534 | 78 | 68 | 0.0 | 0.0 | 0.00 | 0.10 | 0.02 | 100 | 1017.0 |
| 20260830120028 | 78 | 68 | 0.0 | 0.0 | 0.00 | 0.10 | 0.02 | 100 | 1016.7 |
| 20260830115525 | 78 | 68 | 0.0 | 0.0 | 0.00 | 0.10 | 0.02 | 100 | 1016.7 |
| 20260830115031 | 77 | 68 | 0.0 | 0.0 | 0.00 | 0.10 | 0.02 | 100 | 1016.7 |
| 20260830114529 | 77 | 68 | 0.0 | 0.0 | 0.00 | 0.10 | 0.02 | 100 | 1016.5 |
| 20260830114025 | 77 | 68 | 0.0 | 0.0 | 0.00 | 0.10 | 0.02 | 100 | 1016.5 |
| 20260830113521 | 77 | 68 | 0.0 | 0.0 | 0.00 | 0.10 | 0.02 | 100 | 1016.5 |
| 20260830113036 | 77 | 68 | 0.0 | 0.0 | 0.00 | 0.10 | 0.02 | 100 | 1016.4 |
| 20260830112532 | 77 | 68 | 0.0 | 0.0 | 0.02 | 0.10 | 0.02 | 100 | 1016.4 |
| 20260830112028 | 77 | 68 | 0.0 | 0.0 | 0.02 | 0.10 | 0.02 | 100 | 1016.4 |
| 20260830111523 | 77 | 68 | 0.0 | 0.0 | 0.02 | 0.10 | 0.02 | 100 | 1015.9 |
| 20260830111039 | 77 | 68 | 0.0 | 0.0 | 0.02 | 0.10 | 0.02 | 100 | 1015.9 |
| 20260830110552 | 78 | 68 | 0.0 | 0.0 | 0.02 | 0.10 | 0.02 | 100 | 1015.9 |
| 20260830110028 | 78 | 68 | 0.0 | 0.0 | 0.02 | 0.10 | 0.02 | 100 | 1015.8 |
| 20260830105524 | 78 | 68 | 0.0 | 0.0 | 0.02 | 0.10 | 0.02 | 100 | 1015.8 |
| 20260830105028 | 78 | 68 | 0.0 | 0.0 | 0.02 | 0.10 | 0.02 | 100 | 1015.8 |
| 20260830104533 | 78 | 68 | 0.0 | 0.0 | 0.02 | 0.10 | 0.02 | 100 | 1015.4 |
| 20260830104029 | 78 | 68 | 0.0 | 0.0 | 0.02 | 0.10 | 0.02 | 100 | 1015.4 |
| 20260830103526 | 78 | 68 | 0.0 | 0.0 | 0.02 | 0.10 | 0.02 | 100 | 1015.4 |
| 20260830103021 | 78 | 68 | 0.0 | 0.0 | 0.02 | 0.10 | 0.02 | 100 | 1015.4 |
| 20260830102536 | 78 | 68 | 0.0 | 0.0 | 0.01 | 0.09 | 0.01 | 100 | 1015.4 |
| 20260830102032 | 78 | 68 | 0.0 | 0.0 | 0.00 | 0.08 | 0.00 | 100 | 1015.4 |
| 20260830101527 | 78 | 68 | 0.0 | 0.0 | 0.00 | 0.08 | 0.00 | 100 | 1015.3 |
| 20260830101020 | 78 | 68 | 0.0 | 0.0 | 0.00 | 0.08 | 0.00 | 100 | 1015.3 |
| 20260830100536 | 78 | 68 | 0.0 | 0.0 | 0.00 | 0.08 | 0.00 | 100 | 1015.3 |
| 20260830100030 | 78 | 68 | 0.0 | 0.0 | 0.00 | 0.08 | 0.00 | 100 | 1015.3 |
| 20260830095526 | 77 | 68 | 0.0 | 0.0 | 0.00 | 0.08 | 0.00 | 100 | 1015.3 |
| 20260830095035 | 77 | 68 | 0.0 | 0.0 | 0.00 | 0.08 | 0.00 | 100 | 1015.3 |
| 20260830094531 | 77 | 68 | 0.0 | 0.0 | 0.00 | 0.08 | 0.00 | 100 | 1015.3 |
| 20260830094027 | 77 | 68 | 0.0 | 0.0 | 0.00 | 0.08 | 0.00 | 100 | 1015.3 |
| 20260830093536 | 78 | 68 | 0.0 | 0.0 | 0.00 | 0.08 | 0.00 | 100 | 1015.3 |
| 20260830093032 | 78 | 68 | 0.0 | 0.0 | 0.00 | 0.08 | 0.00 | 100 | 1015.2 |
| 20260830092527 | 78 | 68 | 0.0 | 0.0 | 0.00 | 0.10 | 0.00 | 100 | 1015.2 |
| 20260830092022 | 78 | 68 | 0.0 | 0.0 | 0.00 | 0.10 | 0.00 | 100 | 1015.2 |
| 20260830091536 | 78 | 68 | 0.0 | 0.0 | 0.00 | 0.10 | 0.00 | 100 | 1015.3 |
| 20260830091033 | 78 | 68 | 0.0 | 1.0 | 0.00 | 0.10 | 0.00 | 100 | 1015.3 |
| 20260830090526 | 78 | 68 | 0.0 | 2.0 | 0.00 | 0.10 | 0.00 | 100 | 1015.3 |
| 20260830090037 | 78 | 68 | 0.0 | 3.0 | 0.00 | 0.10 | 0.00 | 100 | 1015.4 |
| 20260830085533 | 78 | 68 | 0.0 | 4.0 | 0.00 | 0.10 | 0.00 | 100 | 1015.4 |
| 20260830085028 | 78 | 105 | 1.0 | 4.0 | 0.00 | 0.10 | 0.00 | 100 | 1015.4 |
| 20260830084522 | 78 | 61 | 0.0 | 0.0 | 0.00 | 0.10 | 0.00 | 100 | 1015.6 |
| 20260830084051 | 78 | 61 | 0.0 | 0.0 | 0.00 | 0.10 | 0.00 | 100 | 1015.6 |
| 20260830083523 | 78 | 62 | 0.0 | 0.0 | 0.00 | 0.10 | 0.00 | 100 | 1015.6 |
| 20260830083049 | 78 | 62 | 0.0 | 0.0 | 0.00 | 0.10 | 0.00 | 100 | 1015.5 |
| 20260830082543 | 78 | 62 | 0.0 | 0.0 | 0.00 | 0.12 | 0.00 | 100 | 1015.5 |
| 20260830082035 | 78 | 62 | 0.0 | 0.0 | 0.00 | 0.12 | 0.00 | 100 | 1015.5 |
| 20260830081531 | 78 | 61 | 0.0 | 0.0 | 0.00 | 0.12 | 0.00 | 100 | 1015.8 |
| 20260830081027 | 78 | 61 | 0.0 | 0.0 | 0.00 | 0.12 | 0.00 | 100 | 1015.8 |
| 20260830080534 | 78 | 61 | 0.0 | 0.0 | 0.00 | 0.12 | 0.00 | 100 | 1015.8 |
| 20260830080030 | 78 | 62 | 0.0 | 0.0 | 0.00 | 0.12 | 0.00 | 100 | 1015.9 |
| 20260830075526 | 78 | 61 | 0.0 | 0.0 | 0.00 | 0.12 | 0.00 | 100 | 1015.9 |
| 20260830075035 | 78 | 61 | 0.0 | 0.0 | 0.00 | 0.12 | 0.00 | 100 | 1015.9 |
| 20260830074529 | 78 | 61 | 0.0 | 0.0 | 0.00 | 0.12 | 0.00 | 100 | 1015.9 |
| 20260830074024 | 77 | 61 | 0.0 | 1.0 | 0.00 | 0.12 | 0.00 | 100 | 1015.9 |
| 20260830073538 | 77 | 61 | 0.0 | 2.0 | 0.00 | 0.12 | 0.00 | 100 | 1015.9 |
| 20260830073052 | 77 | 61 | 0.0 | 2.0 | 0.00 | 0.12 | 0.00 | 100 | 1015.9 |
| 20260830072526 | 77 | 65 | 0.0 | 2.0 | 0.00 | 0.22 | 0.00 | 100 | 1015.9 |
| 20260830072021 | 77 | 166 | 1.0 | 2.0 | 0.00 | 0.22 | 0.00 | 100 | 1015.9 |
| 20260830071533 | 77 | 65 | 0.0 | 1.0 | 0.00 | 0.22 | 0.00 | 100 | 1016.0 |
| 20260830071029 | 77 | 150 | 0.0 | 2.0 | 0.00 | 0.22 | 0.00 | 100 | 1016.0 |
| 20260830070525 | 77 | 184 | 0.0 | 3.0 | 0.00 | 0.22 | 0.00 | 100 | 1016.0 |
| 20260830070021 | 77 | 109 | 0.0 | 3.0 | 0.00 | 0.22 | 0.00 | 100 | 1016.3 |
| 20260830065549 | 77 | 141 | 0.0 | 3.0 | 0.00 | 0.22 | 0.00 | 100 | 1016.3 |
| 20260830065025 | 77 | 68 | 0.0 | 2.0 | 0.00 | 0.22 | 0.00 | 100 | 1016.3 |
| 20260830064540 | 77 | 148 | 1.0 | 2.0 | 0.00 | 0.22 | 0.00 | 100 | 1016.4 |
| 20260830064036 | 77 | 113 | 0.0 | 4.0 | 0.00 | 0.22 | 0.00 | 100 | 1016.4 |
| 20260830063531 | 77 | 121 | 1.0 | 4.0 | 0.00 | 0.22 | 0.00 | 100 | 1016.4 |
| 20260830063027 | 77 | 88 | 0.0 | 2.0 | 0.00 | 0.22 | 0.00 | 100 | 1016.4 |
| 20260830062542 | 77 | 82 | 0.0 | 3.0 | 0.00 | 0.22 | 0.00 | 100 | 1016.4 |
| 20260830062029 | 77 | 105 | 0.0 | 4.0 | 0.00 | 0.22 | 0.00 | 100 | 1016.4 |
| 20260830061525 | 77 | 90 | 1.0 | 4.0 | 0.00 | 0.22 | 0.00 | 100 | 1016.4 |
| 20260830061054 | 77 | 119 | 0.0 | 4.0 | 0.00 | 0.22 | 0.00 | 100 | 1016.4 |
| 20260830060529 | 77 | 136 | 0.0 | 4.0 | 0.00 | 0.22 | 0.00 | 100 | 1016.4 |
| 20260830060024 | 77 | 91 | 0.0 | 4.0 | 0.00 | 0.22 | 0.00 | 100 | 1016.8 |
| 20260830055532 | 77 | 160 | 1.0 | 4.0 | 0.00 | 0.22 | 0.00 | 100 | 1016.8 |
| 20260830055032 | 77 | 57 | 0.0 | 3.0 | 0.00 | 0.22 | 0.00 | 100 | 1016.8 |
| 20260830054528 | 77 | 123 | 1.0 | 3.0 | 0.00 | 0.22 | 0.00 | 100 | 1016.9 |
| 20260830054034 | 77 | 153 | 0.0 | 2.0 | 0.00 | 0.22 | 0.00 | 100 | 1016.9 |
| 20260830053529 | 77 | 166 | 0.0 | 2.0 | 0.00 | 0.22 | 0.00 | 100 | 1016.9 |
| 20260830053023 | 77 | 153 | 1.0 | 4.0 | 0.00 | 0.22 | 0.00 | 100 | 1016.9 |
| 20260830052537 | 77 | 134 | 1.0 | 4.0 | 0.00 | 0.22 | 0.00 | 100 | 1016.9 |
| 20260830052033 | 77 | 145 | 0.0 | 3.0 | 0.00 | 0.22 | 0.00 | 100 | 1016.9 |
| 20260830051549 | 77 | 167 | 1.0 | 4.0 | 0.00 | 0.22 | 0.00 | 100 | 1017.3 |
| 20260830051022 | 77 | 139 | 1.0 | 4.0 | 0.00 | 0.22 | 0.00 | 100 | 1017.3 |
| 20260830050537 | 77 | 70 | 0.0 | 5.0 | 0.00 | 0.22 | 0.00 | 100 | 1017.3 |
| 20260830050030 | 77 | 96 | 1.0 | 5.0 | 0.00 | 0.22 | 0.00 | 100 | 1017.4 |
| 20260830045524 | 76 | 110 | 0.0 | 1.0 | 0.00 | 0.22 | 0.00 | 100 | 1017.4 |
| 20260830045033 | 76 | 41 | 0.0 | 3.0 | 0.00 | 0.22 | 0.00 | 100 | 1017.4 |
| 20260830044528 | 76 | 38 | 1.0 | 3.0 | 0.00 | 0.22 | 0.00 | 100 | 1017.4 |
| 20260830044023 | 75 | 84 | 0.0 | 2.0 | 0.00 | 0.22 | 0.00 | 100 | 1017.4 |
| 20260830043551 | 75 | 254 | 0.0 | 0.0 | 0.00 | 0.22 | 0.00 | 100 | 1017.4 |
| 20260830043025 | 75 | 254 | 0.0 | 0.0 | 0.00 | 0.22 | 0.00 | 100 | 1017.4 |
| 20260830042521 | 75 | 254 | 0.0 | 0.0 | 0.00 | 0.22 | 0.00 | 100 | 1017.4 |
| 20260830042031 | 75 | 254 | 0.0 | 0.0 | 0.00 | 0.22 | 0.00 | 100 | 1017.4 |
| 20260830041527 | 75 | 254 | 0.0 | 0.0 | 0.00 | 0.22 | 0.00 | 100 | 1017.5 |
| 20260830041022 | 75 | 254 | 0.0 | 0.0 | 0.00 | 0.22 | 0.00 | 100 | 1017.5 |
| 20260830040529 | 75 | 254 | 0.0 | 0.0 | 0.00 | 0.22 | 0.00 | 100 | 1017.5 |
| 20260830040025 | 75 | 254 | 0.0 | 0.0 | 0.00 | 0.22 | 0.22 | 100 | 1017.5 |
| 20260830035532 | 75 | 254 | 0.0 | 0.0 | 0.00 | 0.22 | 0.22 | 100 | 1017.5 |
| 20260830035029 | 75 | 254 | 0.0 | 0.0 | 0.00 | 0.22 | 0.22 | 100 | 1017.5 |
| 20260830034545 | 75 | 254 | 0.0 | 0.0 | 0.00 | 0.22 | 0.22 | 100 | 1017.4 |
| 20260830034032 | 75 | 254 | 0.0 | 0.0 | 0.00 | 0.22 | 0.22 | 100 | 1017.4 |
| 20260830033528 | 75 | 254 | 0.0 | 0.0 | 0.00 | 0.22 | 0.22 | 100 | 1017.4 |
| 20260830033046 | 75 | 254 | 0.0 | 0.0 | 0.00 | 0.22 | 0.22 | 100 | 1017.4 |
| 20260830032533 | 75 | 254 | 0.0 | 0.0 | 0.00 | 0.22 | 0.22 | 100 | 1017.4 |
| 20260830032030 | 75 | 254 | 0.0 | 0.0 | 0.00 | 0.22 | 0.22 | 100 | 1017.4 |
| 20260830031523 | 75 | 254 | 0.0 | 0.0 | 0.00 | 0.22 | 0.22 | 100 | 1017.3 |
| 20260830031037 | 76 | 254 | 0.0 | 0.0 | 0.00 | 0.22 | 0.22 | 100 | 1017.3 |
| 20260830030529 | 76 | 254 | 0.0 | 0.0 | 0.00 | 0.22 | 0.22 | 100 | 1017.3 |
| 20260830030025 | 76 | 254 | 0.0 | 0.0 | 0.00 | 0.22 | 0.22 | 100 | 1017.3 |
| 20260830025551 | 76 | 254 | 0.0 | 0.0 | 0.00 | 0.22 | 0.22 | 100 | 1017.3 |
| 20260830025026 | 76 | 254 | 0.0 | 0.0 | 0.00 | 0.22 | 0.22 | 100 | 1017.3 |
| 20260830024521 | 76 | 254 | 0.0 | 0.0 | 0.00 | 0.22 | 0.22 | 100 | 1017.2 |
| 20260830024037 | 76 | 254 | 0.0 | 0.0 | 0.00 | 0.22 | 0.22 | 100 | 1017.2 |
| 20260830023533 | 76 | 254 | 0.0 | 0.0 | 0.00 | 0.22 | 0.22 | 100 | 1017.2 |
| 20260830023027 | 76 | 254 | 0.0 | 0.0 | 0.00 | 0.22 | 0.22 | 100 | 1016.9 |
| 20260830022523 | 76 | 254 | 0.0 | 0.0 | 0.00 | 0.22 | 0.22 | 100 | 1016.9 |
| 20260830022042 | 76 | 254 | 0.0 | 0.0 | 0.00 | 0.22 | 0.22 | 100 | 1016.9 |
| 20260830021529 | 76 | 254 | 0.0 | 0.0 | 0.00 | 0.22 | 0.22 | 100 | 1017.1 |
| 20260830021025 | 76 | 254 | 0.0 | 0.0 | 0.00 | 0.22 | 0.22 | 100 | 1017.1 |
| 20260830020534 | 76 | 254 | 0.0 | 0.0 | 0.00 | 0.22 | 0.22 | 100 | 1017.1 |
| 20260830020048 | 76 | 254 | 0.0 | 0.0 | 0.00 | 0.22 | 0.22 | 100 | 1017.3 |
| 20260830015522 | 76 | 254 | 0.0 | 0.0 | 0.00 | 0.22 | 0.22 | 100 | 1017.3 |
| 20260830015037 | 76 | 254 | 0.0 | 1.0 | 0.00 | 0.22 | 0.22 | 100 | 1017.3 |
| 20260830014531 | 76 | 254 | 0.0 | 3.0 | 0.00 | 0.22 | 0.22 | 100 | 1017.2 |
| 20260830014027 | 76 | 253 | 2.0 | 3.0 | 0.00 | 0.22 | 0.22 | 100 | 1017.2 |
| 20260830013556 | 76 | 309 | 0.0 | 2.0 | 0.00 | 0.22 | 0.22 | 100 | 1017.2 |
| 20260830013032 | 76 | 309 | 2.0 | 3.0 | 0.00 | 0.22 | 0.22 | 100 | 1016.9 |
| 20260830012527 | 76 | 309 | 2.0 | 3.0 | 0.00 | 0.22 | 0.22 | 100 | 1016.9 |
| 20260830012035 | 76 | 309 | 0.0 | 2.0 | 0.00 | 0.22 | 0.22 | 100 | 1016.9 |
| 20260830011531 | 76 | 304 | 0.0 | 0.0 | 0.00 | 0.22 | 0.22 | 100 | 1016.9 |
| 20260830011027 | 76 | 304 | 0.0 | 0.0 | 0.00 | 0.22 | 0.22 | 100 | 1016.9 |
| 20260830010534 | 76 | 304 | 0.0 | 0.0 | 0.00 | 0.22 | 0.22 | 100 | 1016.9 |
| 20260830010030 | 76 | 304 | 0.0 | 2.0 | 0.00 | 0.22 | 0.22 | 100 | 1016.9 |
| 20260830005530 | 76 | 304 | 1.0 | 2.0 | 0.00 | 0.22 | 0.22 | 100 | 1016.9 |
| 20260830005025 | 76 | 304 | 0.0 | 0.0 | 0.00 | 0.22 | 0.22 | 100 | 1016.9 |
| 20260830004521 | 76 | 304 | 0.0 | 0.0 | 0.00 | 0.22 | 0.22 | 100 | 1016.8 |
| 20260830004029 | 76 | 308 | 0.0 | 1.0 | 0.00 | 0.22 | 0.22 | 100 | 1016.8 |
| 20260830003524 | 76 | 308 | 0.0 | 2.0 | 0.00 | 0.22 | 0.22 | 100 | 1016.8 |
| 20260830003031 | 76 | 308 | 1.0 | 2.0 | 0.00 | 0.22 | 0.22 | 100 | 1016.8 |
| 20260830002528 | 76 | 308 | 0.0 | 3.0 | 0.00 | 0.22 | 0.22 | 100 | 1016.8 |